Location: Oberkirch
(48.5323°N, 8.0787°E)
Time: 18:24:14
(UTC+00:00)

Cosmos 1153 Rocket - Pass Details

Date: 08 November 2025
Orbit: 952 x 1005 km, 82.9° (Epoch: 10 December)

Event Time Altitude Azimuth Distance (km) Brightness Sun altitude
Rises 03:37:24 0° 349° (N) 3,647 7.5 -27.9°
Reaches altitude 10° 03:39:54 10° 348° (NNW) 2,701 6.7 -27.5°
Maximum altitude 03:46:04 77° 264° (W) 994 4.3 -26.4°
Drops below altitude 10° 03:52:16 10° 179° (S) 2,714 6.8 -25.4°
Sets 03:54:47 0° 178° (S) 3,665 7.5 -25.0°
